Location: Castellare
(42.4669°N, 9.4728°E)
Time: 17:07:46
(UTC+00:00)

Cosmos 2061 Rocket - Pass Details

Date: 17 February 2020
Orbit: 965 x 1013 km, 82.9° (Epoch: 06 April)

Event Time Altitude Azimuth Distance (km) Brightness Sun altitude
Rises 05:02:01 0° 353° (N) 3,712 6.9 -14.4°
Reaches altitude 10° 05:04:35 10° 355° (N) 2,752 6.3 -14.0°
Maximum altitude 05:10:53 76° 82° (E) 1,010 4.2 -12.8°
Drops below altitude 10° 05:17:05 10° 168° (SSE) 2,705 6.6 -11.7°
Sets 05:19:34 0° 170° (S) 3,643 7.2 -11.2°
